Temp
65 65 65 65 65 65 65 65 65 65 65 65 65 65 65 65 66 74 69 70 71 69 69 80 82 82 83 78 79 79 70 66 68 69 70 75 73 77 79 78 78 79 79 80 82
65 65 65 65 64 64 65 64 64 64 64 64 65 65 64 64 70 67 70 69 69 70 75 74 74 76 76 74 76 73 68 69 74 76 72 73 75 75 74 75 75 77 81 83 83
64 64 64 65 64 64 64 64 63 64 64 64 64 64 64 67 64 67 68 69 69 70 75 75 75 74 70 73 72 72 67 72 70 73 75 72 72 75 73 70 76 74 78 81 81
64 64 64 64 64 64 64 64 63 63 64 63 64 64 63 68 52 68 67 68 68 74 74 72 71 67 66 64 71 64 69 71 70 68 69 69 73 71 72 74 79 78 79 79 79
63 63 63 63 64 64 64 64 63 63 63 63 63 63 65 60 63 72 66 70 73 72 70 69 67 68 63 66 65 63 66 67 68 66 67 67 67 68 70 76 79 79 77 77 79
62 62 62 62 63 64 64 63 63 63 63 63 63 63 63 52 70 72 71 71 71 70 70 71 68 71 67 64 63 67 65 66 66 66 66 63 66 68 71 76 74 74 74 77 77
61 61 62 62 62 63 63 63 63 63 63 63 63 65 58 60 72 72 71 69 71 70 66 70 71 67 68 61 65 63 58 62 64 65 64 65 60 62 71 75 70 73 76 77 78
61 61 61 61 62 62 62 62 63 63 63 63 63 64 54 67 72 67 70 69 71 72 70 70 71 68 65 66 62 58 59 54 62 62 63 63 56 67 71 70 69 73 74 76 78
61 60 60 60 61 61 62 62 61 62 63 63 62 58 53 65 61 68 70 65 68 69 69 70 69 63 62 57 54 56 52 53 54 62 61 60 58 66 68 67 68 71 73 75 76
60 60 60 60 60 60 61 61 61 62 63 64 63 52 58 54 62 64 69 68 63 63 61 62 61 55 57 54 46 51 50 53 54 57 58 57 57 64 68 67 67 69 71 73 74
60 60 60 60 60 60 60 58 50 49 55 52 52 55 55 60 63 59 66 63 63 59 51 57 51 47 54 56 57 56 54 52 54 57 52 53 55 60 64 65 66 67 70 72 73
59 59 59 60 60 61 62 55 55 58 45 54 54 57 59 60 52 57 63 56 55 49 56 50 45 54 58 57 54 52 50 51 55 57 53 54 55 61 64 65 67 69 70 71 72
59 59 59 59 59 59 58 59 65 63 50 51 54 54 56 57 53 54 60 57 52 49 51 48 52 57 53 51 48 50 48 50 49 55 56 55 54 60 64 65 66 67 70 70 69
59 59 58 58 53 55 53 62 62 61 40 43 46 53 55 56 49 62 63 59 53 49 51 50 56 52 50 49 51 45 55 51 49 47 42 54 42 54 60 62 65 66 66 66 65
59 59 59 58 53 51 54 57 59 55 25 47 48 60 58 52 51 51 63 57 49 50 51 46 49 48 46 50 53 48 54 51 50 47 46 47 41 52 58 56 62 65 63 62 60
57 59 59 56 57 59 58 55 51 33 24 36 46 44 45 51 49 50 52 57 58 51 51 50 52 52 52 53 54 54 50 49 49 46 33 45 44 51 55 57 62 64 62 60 58
56 57 57 55 49 58 55 48 31 28 39 32 38 44 45 44 45 46 44 44 43 37 37 44 45 49 51 46 48 49 45 34 31 31 33 47 44 51 60 62 62 63 64 58 56
55 56 56 57 55 57 49 37 28 33 33 43 44 44 39 44 45 44 42 39 48 48 43 36 32 45 51 49 45 44 46 38 29 33 39 43 37 49 61 65 67 60 62 57 55
54 51 51 53 56 55 41 30 32 36 42 41 43 36 37 43 44 44 42 42 47 49 41 37 38 48 50 52 52 45 39 50 39 37 33 42 49 58 58 57 61 59 56 54 53
49 47 47 53 56 49 36 33 34 48 48 47 35 40 32 37 41 41 42 48 46 51 53 44 35 43 46 49 50 48 52 34 36 27 28 40 44 46 52 54 57 57 55 55 52
47 40 49 54 52 41 32 34 35 46 51 46 42 38 41 40 42 40 42 46 51 49 51 48 43 37 42 41 42 42 39 43 44 39 32 32 42 56 57 59 59 59 56 54 52
40 32 45 52 36 34 33 35 45 42 45 45 49 45 42 44 40 42 42 47 53 52 43 50 45 36 38 50 52 49 45 45 36 33 38 37 38 58 59 58 57 58 56 55 53
32 36 45 49 32 32 33 38 45 41 41 43 42 47 48 43 36 43 46 50 52 50 46 48 37 31 32 37 45 42 45 46 47 44 36 32 39 55 56 56 58 55 57 53 51
34 31 36 40 37 34 33 34 35 47 45 47 43 46 43 41 44 40 42 45 49 51 47 49 42 37 34 37 42 37 41 44 44 33 37 38 43 51 55 56 58 55 54 53 49
35 32 32 30 31 34 36 34 35 34 45 47 42 44 42 34 38 38 43 42 45 47 47 47 35 41 42 44 44 41 41 43 39 41 35 41 43 49 54 56 58 60 54 51 48
33 34 35 33 34 34 35 33 35 39 40 38 39 44 46 39 40 37 42 42 41 44 44 47 35 41 33 41 41 37 41 42 42 43 43 44 43 54 56 58 57 57 58 51 49
38 41 41 34 33 33 33 34 36 41 42 47 44 43 42 46 49 50 48 49 48 44 42 42 37 32 29 38 36 27 35 40 42 46 45 38 46 53 53 54 55 56 57 52 50
MSLP
1015.96 1016.13 1016.41 1016.74 1016.99 1017.28 1017.82 1017.99 1018.11 1018.26 1018.33 1018.38 1018.41 1018.41 1018.26 1018.08 1017.66 1016.99 1016.65 1016.98 1016.91 1016.69 1016.29 1015.29 1014.43 1013.86 1013.36 1012.95 1012.88 1012.53 1011.41 1010.45 1010.36 1010.51 1011.25 1012.53 1012.44 1013.09 1013.36 1012.91 1013.29 1013.57 1013.65 1014.40 1014.91
1015.50 1015.85 1016.18 1016.37 1016.68 1017.27 1017.57 1017.79 1018.09 1018.30 1018.36 1018.32 1018.37 1018.54 1018.43 1018.22 1017.70 1017.09 1017.09 1017.03 1016.92 1016.84 1016.19 1015.41 1014.63 1014.28 1013.34 1013.26 1013.06 1012.51 1011.71 1011.00 1011.21 1011.34 1011.86 1012.63 1012.58 1012.92 1013.19 1013.16 1013.36 1013.66 1013.95 1014.26 1014.50
1015.02 1015.47 1015.85 1016.10 1016.46 1017.04 1017.39 1017.48 1017.96 1018.13 1018.47 1018.31 1018.44 1018.63 1018.53 1018.17 1017.59 1016.50 1017.13 1017.14 1016.89 1016.86 1016.54 1016.04 1015.43 1014.72 1013.98 1013.80 1013.44 1012.97 1012.35 1012.36 1012.93 1013.20 1012.98 1013.19 1013.31 1013.50 1013.18 1013.14 1013.10 1013.53 1013.77 1014.07 1014.36
1014.63 1014.95 1015.42 1015.83 1016.20 1016.69 1017.05 1017.41 1017.76 1017.88 1018.51 1018.52 1018.42 1018.72 1018.56 1018.06 1017.41 1016.99 1017.33 1017.16 1016.80 1016.57 1016.46 1016.00 1015.45 1014.85 1014.31 1014.07 1013.92 1013.77 1013.68 1013.52 1013.95 1014.70 1014.39 1014.07 1013.86 1013.76 1013.61 1013.34 1013.46 1014.14 1014.36 1014.39 1014.24
1014.15 1014.50 1015.04 1015.42 1015.78 1016.35 1016.78 1017.14 1017.43 1017.89 1018.43 1018.42 1018.53 1018.70 1018.56 1017.85 1016.88 1017.15 1017.30 1016.99 1016.58 1016.61 1016.29 1015.97 1015.45 1014.98 1014.67 1014.48 1014.93 1014.64 1014.53 1014.82 1015.13 1015.37 1015.20 1015.25 1014.59 1014.23 1013.79 1013.81 1013.77 1014.07 1014.42 1014.25 1014.04
1013.49 1014.01 1014.67 1015.02 1015.69 1016.06 1016.64 1017.05 1017.36 1017.82 1018.19 1018.50 1018.50 1018.75 1018.39 1017.68 1017.15 1017.26 1017.11 1016.99 1016.68 1016.55 1016.30 1016.08 1015.63 1015.40 1015.04 1015.20 1015.25 1015.07 1015.41 1015.39 1015.72 1015.71 1015.77 1015.59 1014.83 1014.64 1013.93 1013.88 1014.08 1014.21 1014.24 1014.01 1013.94
1013.13 1013.15 1014.22 1014.71 1015.45 1015.91 1016.60 1016.86 1017.17 1017.67 1018.01 1018.33 1018.64 1018.78 1018.21 1017.05 1017.09 1017.26 1017.14 1017.04 1016.94 1016.61 1016.51 1016.40 1016.26 1016.06 1015.67 1015.85 1016.16 1016.11 1015.92 1015.85 1015.72 1015.88 1015.82 1015.85 1014.92 1013.99 1014.17 1013.75 1014.10 1013.84 1013.68 1013.60 1013.65
1012.66 1012.58 1013.89 1014.57 1015.31 1015.95 1016.41 1016.66 1017.06 1017.51 1017.99 1018.37 1018.79 1018.59 1017.64 1017.29 1017.30 1017.55 1017.18 1017.00 1016.99 1016.90 1016.83 1017.01 1016.74 1016.38 1016.15 1016.60 1016.58 1016.38 1016.27 1015.69 1015.51 1016.08 1016.05 1016.15 1014.00 1013.60 1014.01 1014.13 1013.89 1013.55 1013.43 1013.27 1013.15
1011.88 1012.31 1013.42 1014.26 1015.10 1015.66 1016.15 1016.72 1017.06 1017.54 1018.02 1018.58 1018.86 1018.58 1017.58 1017.53 1017.51 1017.20 1017.25 1016.95 1017.02 1017.17 1017.13 1017.23 1017.02 1016.61 1016.91 1016.45 1016.37 1016.21 1015.31 1015.49 1015.89 1016.14 1015.86 1015.70 1014.03 1013.63 1014.28 1014.36 1013.95 1013.60 1013.32 1013.04 1012.82
1011.28 1012.00 1012.98 1013.79 1014.70 1015.53 1015.94 1016.73 1017.51 1017.95 1018.42 1018.54 1018.47 1018.81 1017.65 1017.25 1017.26 1017.25 1017.31 1017.29 1017.22 1017.35 1017.49 1017.37 1017.25 1017.02 1016.82 1016.35 1015.55 1015.28 1015.80 1015.79 1015.62 1016.27 1016.34 1015.56 1014.59 1013.89 1013.81 1013.82 1013.59 1013.41 1013.23 1013.00 1012.72
1010.73 1011.49 1012.81 1013.30 1014.31 1015.10 1015.94 1017.06 1018.04 1018.33 1017.95 1017.66 1017.55 1017.04 1016.98 1017.43 1017.60 1017.66 1017.34 1017.30 1017.21 1017.46 1017.37 1017.34 1017.25 1016.57 1016.39 1016.42 1016.18 1015.95 1015.82 1015.82 1016.29 1016.66 1016.71 1015.92 1014.80 1013.91 1013.51 1013.27 1012.91 1012.80 1012.75 1012.54 1012.48
1010.21 1011.14 1012.26 1013.14 1013.95 1014.53 1014.89 1015.35 1015.48 1015.72 1017.15 1017.65 1017.71 1017.15 1017.24 1017.46 1017.39 1017.57 1017.86 1017.37 1017.24 1017.12 1017.12 1017.60 1017.02 1016.81 1016.57 1016.73 1016.78 1016.78 1016.32 1016.32 1016.34 1016.63 1016.84 1015.64 1014.14 1013.35 1012.83 1012.22 1012.08 1012.14 1012.11 1012.27 1012.63
1009.43 1010.77 1011.78 1013.00 1013.56 1014.42 1014.59 1014.69 1015.03 1015.47 1016.13 1017.13 1017.28 1016.76 1017.00 1017.47 1017.15 1017.28 1017.46 1017.01 1017.12 1017.01 1016.90 1017.00 1016.83 1016.65 1017.24 1017.31 1017.32 1017.19 1016.89 1016.74 1016.84 1016.71 1016.52 1015.26 1013.02 1011.59 1011.73 1011.76 1011.93 1011.97 1012.19 1012.61 1013.31
1008.97 1010.25 1011.37 1012.51 1013.99 1013.86 1014.63 1015.08 1015.30 1015.66 1016.14 1016.47 1016.69 1016.07 1016.69 1017.18 1017.25 1016.85 1016.94 1016.82 1016.97 1016.60 1016.99 1017.19 1017.10 1017.20 1017.37 1017.45 1017.67 1017.15 1017.14 1017.50 1017.45 1017.50 1016.55 1016.32 1013.50 1011.85 1011.53 1011.48 1011.48 1011.83 1012.41 1013.24 1014.26
1008.54 1009.73 1010.87 1011.83 1012.50 1013.54 1014.58 1015.34 1015.47 1015.92 1016.38 1014.95 1015.66 1015.98 1015.81 1016.39 1016.70 1017.01 1016.92 1017.17 1016.58 1016.39 1017.04 1017.12 1017.22 1017.44 1017.51 1017.51 1017.73 1017.52 1017.71 1017.73 1017.76 1017.76 1017.37 1016.48 1015.56 1011.74 1011.50 1011.26 1011.14 1011.96 1013.06 1014.04 1015.22
1008.44 1009.20 1010.37 1011.93 1012.43 1013.09 1014.13 1015.29 1016.26 1017.07 1015.78 1015.50 1015.61 1015.65 1015.83 1016.05 1016.70 1017.25 1017.60 1017.44 1016.94 1016.97 1017.44 1017.54 1018.21 1017.76 1017.63 1017.82 1017.90 1017.93 1018.12 1018.34 1018.46 1018.45 1017.51 1015.94 1015.20 1010.97 1010.73 1010.98 1011.03 1012.20 1013.55 1014.72 1015.89
1008.34 1008.94 1010.06 1011.22 1011.84 1012.94 1014.32 1015.90 1016.61 1015.89 1015.17 1015.61 1015.08 1015.32 1015.58 1015.65 1016.48 1016.89 1017.11 1017.09 1016.57 1016.90 1017.04 1017.83 1018.15 1018.36 1018.30 1018.37 1018.64 1018.33 1018.14 1018.47 1018.81 1018.64 1016.55 1015.49 1014.47 1011.30 1010.95 1011.10 1011.64 1012.14 1013.35 1015.32 1016.71
1008.30 1009.16 1009.78 1010.82 1011.88 1012.62 1014.27 1015.32 1015.13 1014.10 1014.55 1014.66 1014.56 1015.33 1015.55 1015.73 1016.06 1016.57 1016.76 1016.66 1016.42 1016.04 1016.21 1017.12 1018.14 1018.15 1018.09 1017.65 1017.68 1018.03 1017.92 1017.65 1017.55 1017.18 1016.11 1015.80 1013.47 1011.45 1011.16 1011.14 1011.59 1013.20 1014.13 1015.66 1016.96
1008.40 1009.54 1009.92 1010.72 1011.73 1012.47 1014.10 1013.86 1013.17 1013.03 1013.40 1013.93 1014.60 1015.18 1015.35 1015.49 1015.46 1015.94 1015.97 1015.86 1015.64 1015.65 1015.79 1016.52 1017.25 1017.80 1017.88 1017.72 1017.82 1018.04 1018.02 1018.29 1018.10 1017.92 1017.27 1014.79 1012.70 1011.50 1011.21 1011.55 1011.97 1013.24 1014.69 1016.04 1017.23
1008.02 1009.47 1010.12 1010.80 1011.55 1012.45 1013.89 1013.86 1013.33 1012.19 1012.42 1012.67 1013.72 1014.66 1014.69 1014.94 1014.94 1015.03 1015.20 1014.76 1014.98 1015.22 1015.60 1016.37 1017.27 1018.18 1018.50 1018.59 1018.26 1017.87 1017.95 1018.75 1018.79 1017.77 1016.10 1013.42 1012.01 1010.38 1010.52 1011.40 1012.20 1013.13 1014.50 1015.89 1017.25
1007.98 1009.29 1009.82 1010.68 1011.46 1012.54 1012.76 1012.75 1012.68 1012.60 1012.18 1012.05 1012.68 1013.60 1014.05 1014.10 1014.53 1014.63 1014.34 1014.60 1014.48 1015.10 1015.92 1016.36 1017.05 1018.51 1018.73 1017.90 1017.39 1018.03 1018.04 1017.91 1017.70 1017.31 1015.86 1013.72 1011.56 1010.45 1010.17 1010.91 1011.79 1012.96 1014.58 1015.90 1017.27
1008.28 1009.61 1009.96 1010.30 1010.73 1011.55 1012.24 1012.00 1012.31 1013.01 1013.21 1012.41 1012.35 1013.07 1013.33 1013.68 1014.18 1014.31 1014.06 1014.14 1014.41 1014.94 1015.46 1015.76 1016.55 1017.15 1017.62 1017.13 1017.32 1017.33 1017.26 1017.42 1017.14 1016.97 1016.06 1015.00 1011.19 1011.07 1011.24 1011.96 1012.64 1013.30 1014.64 1015.93 1017.33
1009.52 1010.10 1010.14 1009.67 1010.12 1011.39 1012.24 1011.84 1012.19 1012.73 1012.67 1012.61 1012.70 1012.85 1013.27 1013.50 1014.19 1014.16 1014.20 1014.78 1014.83 1014.97 1015.18 1015.96 1016.91 1017.10 1017.55 1018.34 1017.80 1017.38 1017.26 1017.18 1016.94 1016.77 1014.99 1014.88 1011.38 1011.77 1011.75 1012.46 1012.95 1013.79 1014.65 1016.15 1017.43
1009.90 1010.53 1010.24 1009.75 1010.70 1011.23 1011.77 1011.70 1012.49 1012.63 1012.53 1012.44 1012.71 1013.03 1013.50 1013.73 1014.11 1014.34 1014.85 1015.40 1015.45 1015.42 1015.70 1016.05 1016.19 1016.28 1016.21 1016.52 1016.81 1017.16 1017.10 1016.95 1016.79 1015.89 1015.00 1012.66 1011.69 1012.02 1011.70 1012.05 1012.55 1013.52 1014.54 1015.79 1017.07
1009.10 1010.00 1010.33 1010.41 1010.95 1011.24 1011.47 1011.64 1011.74 1012.55 1012.50 1012.58 1012.82 1012.66 1013.09 1013.77 1014.15 1014.60 1015.07 1015.73 1016.03 1016.00 1016.31 1016.44 1016.33 1016.67 1016.75 1016.76 1016.85 1016.97 1016.68 1016.53 1016.12 1015.31 1015.15 1012.68 1011.78 1011.94 1011.83 1011.93 1012.11 1012.47 1013.79 1014.99 1016.16
1009.28 1009.99 1010.67 1010.35 1010.96 1011.34 1011.60 1011.53 1011.16 1011.69 1012.03 1012.29 1012.27 1012.57 1012.86 1013.28 1013.86 1014.41 1014.86 1015.30 1015.54 1016.32 1016.24 1016.28 1016.37 1016.79 1017.23 1017.42 1017.34 1016.66 1016.14 1016.15 1015.43 1015.00 1014.51 1013.37 1010.48 1012.27 1011.84 1011.94 1011.92 1011.95 1012.38 1013.65 1015.05
1010.21 1010.41 1010.34 1011.02 1011.36 1011.45 1011.56 1011.74 1011.63 1011.61 1012.55 1012.26 1012.73 1013.00 1013.19 1013.70 1014.23 1014.69 1015.13 1015.36 1015.18 1015.53 1015.90 1016.25 1016.63 1017.50 1017.40 1017.72 1017.59 1015.79 1015.37 1014.74 1014.23 1013.98 1014.22 1012.65 1009.53 1011.76 1011.26 1011.50 1011.44 1010.86 1011.59 1012.48 1013.76
Wind_Speed
16 15 15 14 13 12 11 9 7 6 4 3 2 4 6 9 11 7 7 6 7 10 12 10 8 6 6 1 2 3 6 9 10 10 9 7 7 3 1 3 3 2 5 4 4
15 15 15 15 14 13 11 10 8 7 6 4 3 3 4 7 7 9 5 8 9 7 8 6 6 5 4 3 3 6 7 11 3 2 8 8 7 5 5 6 5 6 3 1 2
16 15 16 15 14 14 12 10 9 7 6 5 3 3 4 6 6 1 7 9 11 6 8 7 6 5 7 4 5 4 8 6 4 2 3 7 6 3 5 6 3 4 5 5 7
16 16 16 16 15 15 14 12 10 8 7 5 3 3 3 4 5 4 6 9 7 7 9 7 7 6 6 8 4 6 1 3 5 2 3 7 1 7 7 8 3 4 8 10 11
17 16 16 16 15 15 14 12 11 10 8 6 4 2 4 5 7 3 5 4 2 5 11 9 9 8 9 6 6 9 5 4 4 3 2 2 8 8 8 8 8 6 8 12 12
19 18 18 16 15 14 13 13 12 11 10 7 4 3 6 9 3 2 3 2 4 4 8 8 5 4 6 5 11 5 7 7 4 5 3 6 11 6 6 6 5 9 12 12 11
21 20 17 16 13 12 13 11 11 11 9 9 7 5 3 6 1 2 1 1 2 0 6 1 2 7 4 5 2 4 7 7 9 8 8 4 14 14 13 10 11 13 13 12 12
22 21 18 16 16 14 12 11 10 9 11 10 7 4 5 2 4 4 1 2 2 2 1 2 2 3 4 6 6 7 6 9 7 6 5 7 12 6 3 7 12 12 12 14 13
23 21 21 18 16 14 13 11 11 9 8 13 7 4 5 2 4 4 6 2 5 4 3 2 3 3 5 10 6 9 6 10 6 7 4 12 9 3 3 6 11 12 14 14 16
25 24 22 21 18 16 15 13 10 11 7 5 2 3 6 3 3 2 5 6 3 7 5 6 6 7 8 10 6 7 9 7 7 6 7 10 15 14 12 14 17 17 17 17 16
27 23 22 22 21 21 20 12 8 3 7 6 7 2 2 5 2 2 5 8 7 9 7 9 8 10 13 13 7 6 7 6 4 1 3 12 16 16 14 16 18 19 18 16 15
26 23 22 20 24 27 17 11 13 8 5 6 3 7 4 1 3 5 5 10 11 12 12 7 12 11 6 8 11 7 6 6 4 3 5 14 20 19 19 22 21 20 17 15 10
26 27 22 25 26 17 17 15 9 8 4 10 8 7 6 4 2 11 13 7 11 14 14 14 3 3 8 7 9 11 11 9 9 8 13 14 21 11 5 8 6 6 7 6 4
26 26 28 24 17 14 13 9 7 3 1 9 10 9 7 6 6 7 12 10 8 15 13 12 9 6 10 12 7 7 7 8 7 6 5 4 9 12 7 9 9 2 4 3 4
25 29 29 29 12 12 9 6 5 5 7 12 11 3 13 13 11 7 9 7 12 10 8 4 8 11 11 10 10 3 3 4 5 9 11 11 7 4 3 12 13 8 5 5 4
25 29 32 17 9 12 17 9 5 5 10 7 8 12 16 19 6 7 8 4 3 8 8 4 2 5 12 2 9 7 4 2 1 4 8 14 12 7 8 7 7 9 7 5 4
23 26 27 9 10 17 16 11 4 7 4 8 10 14 19 13 13 11 13 13 11 8 9 7 6 3 1 6 2 9 8 2 2 4 7 2 12 14 2 4 9 5 7 6 5
20 23 19 7 13 21 9 6 9 6 3 5 12 17 16 16 16 12 16 13 15 8 11 9 7 14 12 10 6 13 12 4 6 7 6 5 10 5 4 11 11 4 5 8 6
24 7 8 7 17 15 10 8 8 6 11 14 14 12 7 16 7 15 15 14 16 16 6 6 5 2 5 5 9 10 12 12 9 4 7 11 15 16 10 7 8 8 6 6 6
10 10 8 12 18 13 8 8 4 6 15 20 8 10 9 17 13 16 16 14 16 15 8 4 4 2 6 4 9 11 4 4 4 6 10 10 13 10 3 11 10 11 9 7 7
5 8 11 16 10 12 12 9 4 4 15 16 13 9 11 17 14 20 9 4 18 14 14 9 6 5 6 11 13 10 6 8 6 8 6 8 7 7 6 9 9 7 7 9 10
4 5 5 17 11 5 13 10 9 10 3 4 7 6 12 18 16 16 13 7 8 14 16 17 7 9 10 5 10 15 15 17 10 8 11 11 18 6 4 6 4 2 8 9 10
4 2 2 13 11 8 2 9 7 10 7 7 5 7 6 13 8 12 12 7 6 15 10 13 6 5 5 2 8 10 14 19 18 15 19 13 9 5 11 4 2 6 7 8 10
4 4 1 1 4 5 8 12 14 12 10 6 5 6 8 9 4 13 8 4 7 13 4 12 6 8 8 5 2 8 17 18 20 16 14 24 26 21 17 13 9 7 7 12 13
2 3 1 5 5 8 10 11 20 10 8 10 5 12 10 4 10 6 10 5 4 4 6 9 5 10 11 12 10 12 13 14 21 22 22 22 29 16 16 15 13 13 12 13 16
4 3 0 4 10 11 5 10 20 16 13 11 8 14 15 8 9 10 13 8 8 8 8 6 4 7 3 8 11 18 21 21 23 24 25 24 35 16 17 16 18 19 17 16 17
1 2 2 4 4 5 3 5 12 14 2 14 11 13 10 7 4 4 2 2 3 8 14 7 4 2 10 8 5 17 13 25 26 25 23 28 34 16 19 18 20 25 18 14 19
Wind_Direction
211 205 196 189 184 184 195 194 191 194 208 220 294 332 347 342 310 289 281 360 338 335 316 302 286 308 281 271 311 286 247 225 199 204 137 161 166 129 94 143 96 90 60 63 40
206 208 204 193 185 188 189 187 189 194 199 204 241 300 341 337 298 278 31 349 322 319 300 309 283 300 235 231 217 246 240 237 21 187 154 153 192 151 194 178 163 176 156 122 322
200 204 203 195 189 189 189 181 186 188 208 190 221 274 314 306 282 220 24 340 319 262 266 284 279 271 237 256 199 178 244 105 138 127 164 158 176 186 215 227 250 280 321 306 318
199 197 199 198 192 192 187 184 183 181 204 200 192 252 291 244 250 100 348 332 327 235 228 234 237 219 231 211 181 230 270 211 133 130 200 200 218 226 223 251 331 288 298 292 286
197 192 193 190 187 190 190 184 180 180 191 195 191 230 231 215 249 81 314 348 350 197 208 214 223 223 217 211 202 235 189 188 129 177 248 293 248 260 252 243 253 270 272 271 274
190 183 182 176 183 182 184 185 182 182 178 183 177 211 240 237 72 23 341 310 55 194 207 213 233 226 246 207 221 203 201 196 205 206 235 259 262 251 225 235 222 253 262 261 264
189 172 176 172 183 182 185 180 183 183 180 174 172 213 243 242 12 20 354 42 36 227 179 192 237 202 159 175 144 166 197 214 227 228 244 254 259 238 241 243 258 258 252 261 263
189 169 172 171 177 181 184 175 170 172 186 163 177 216 249 77 297 265 262 156 121 90 326 104 225 187 250 104 166 199 232 216 142 206 194 212 257 148 174 225 242 259 269 267 266
183 174 173 172 176 172 168 160 147 147 171 150 170 219 246 116 216 243 220 184 139 115 99 171 226 192 174 195 185 195 231 217 164 213 177 212 272 114 160 234 255 265 277 281 283
184 175 173 170 170 166 148 136 128 122 145 148 4 207 198 196 136 148 197 179 158 149 136 176 198 205 210 199 212 202 221 209 225 161 222 234 252 269 262 263 270 274 274 276 277
182 173 177 168 165 154 130 122 126 173 202 211 184 230 81 100 139 195 174 172 165 186 186 197 207 208 210 216 277 277 231 224 163 123 289 256 264 266 271 268 264 265 270 270 271
174 173 171 172 164 154 153 173 174 139 157 212 285 194 107 189 158 169 186 184 193 196 202 179 225 223 240 220 232 238 235 230 251 245 270 282 278 273 267 263 263 262 262 269 275
172 173 170 181 159 157 175 174 138 182 179 189 210 212 171 189 181 181 184 192 195 199 200 219 97 231 185 199 217 230 246 253 264 303 276 290 280 248 245 267 258 237 248 256 287
173 171 169 158 162 160 185 147 154 232 242 183 196 217 164 169 233 165 208 185 194 204 194 226 174 153 206 225 212 246 223 254 279 295 286 40 296 295 263 246 227 212 222 125 118
183 178 172 163 134 175 140 121 96 43 220 165 158 111 167 177 126 181 188 217 201 190 179 176 207 186 199 209 193 217 128 209 248 267 293 268 260 258 224 241 246 200 162 131 85
184 179 168 170 158 160 130 103 65 128 222 155 150 174 170 198 148 127 182 247 304 187 224 164 51 218 218 150 196 131 143 144 246 280 259 233 222 256 178 246 207 146 176 149 125
177 172 160 147 162 135 134 121 154 214 159 166 174 172 183 182 164 178 175 183 180 173 182 161 186 151 199 157 138 199 170 166 218 212 249 96 221 250 293 250 276 188 177 147 144
164 168 169 151 143 139 141 150 212 148 157 192 160 169 185 168 195 189 179 191 216 208 166 181 180 187 181 205 173 195 194 199 244 248 278 135 240 251 265 264 228 117 134 138 158
159 157 165 150 144 153 151 203 194 145 146 152 147 165 176 181 189 185 197 204 201 196 177 179 199 199 202 194 174 188 222 245 297 256 268 252 249 259 204 227 246 196 189 188 166
161 159 185 157 156 153 160 209 182 165 149 145 138 178 176 183 186 191 188 207 212 204 233 173 153 151 162 191 244 242 204 174 212 241 252 246 255 260 205 211 216 217 216 197 168
160 163 170 163 166 166 198 204 119 183 168 173 142 165 187 183 199 194 205 154 203 180 196 164 222 131 162 200 191 191 208 225 236 237 265 281 263 21 45 197 229 213 217 193 189
94 144 190 161 185 152 206 152 150 153 236 128 157 130 179 184 193 195 204 218 185 173 196 201 225 209 203 185 246 222 216 219 225 199 239 268 258 235 69 46 41 189 193 195 193
101 100 224 179 191 180 303 194 159 155 182 167 136 161 180 181 178 208 206 153 207 180 181 169 215 186 168 14 241 234 232 239 240 261 253 249 241 49 85 178 228 259 214 198 191
130 138 201 173 117 159 155 173 173 189 184 182 120 128 153 192 133 191 192 139 194 193 199 172 197 220 230 83 86 205 232 239 240 242 255 245 270 260 267 281 265 228 214 206 201
99 79 9 143 144 132 176 156 165 163 194 178 166 181 170 157 173 185 172 140 179 192 169 192 220 232 251 279 273 265 254 244 240 250 250 270 269 268 273 281 288 296 204 211 207
101 100 121 51 116 140 153 175 173 167 158 181 168 189 191 169 183 170 174 176 175 191 193 207 251 243 241 270 276 269 261 260 260 263 266 270 264 269 269 275 276 271 260 216 216
76 78 54 92 112 130 139 118 175 143 183 184 182 185 196 215 133 96 111 176 178 185 202 206 171 173 261 262 293 266 235 243 252 251 252 256 264 276 279 281 272 270 271 219 218